| time (UTC) | temp F | wind direction | speed MPH | gust MPH | rain 1hr in | rain 24hr in | rain mn in | humidity % | barometer mb |
| 20260905070846 | 72 | 51 | 0.0 | 0.0 | 0.00 | 0.25 | 0.00 | 1 | 1013.5 |
| 20260905065824 | 72 | 51 | 0.0 | 0.0 | 0.00 | 0.25 | 0.00 | 1 | 1013.7 |
| 20260905064800 | 72 | 51 | 0.0 | 0.0 | 0.00 | 0.25 | 0.00 | 1 | 1013.9 |
| 20260905062609 | 72 | 51 | 0.0 | 0.0 | 0.00 | 0.42 | 0.00 | 1 | 1014.0 |
| 20260905061536 | 72 | 51 | 0.0 | 0.0 | 0.00 | 0.42 | 0.00 | 1 | 1014.0 |
| 20260905060514 | 72 | 51 | 0.0 | 0.0 | 0.00 | 0.42 | 0.00 | 1 | 1014.2 |
| 20260905055512 | 72 | 51 | 0.0 | 0.0 | 0.00 | 0.42 | 0.00 | 1 | 1014.3 |
| 20260905053327 | 72 | 51 | 0.0 | 0.0 | 0.00 | 0.42 | 0.00 | 1 | 1014.6 |
| 20260905052313 | 72 | 51 | 0.0 | 0.0 | 0.00 | 0.42 | 0.00 | 1 | 1014.7 |
| 20260905051333 | 72 | 51 | 0.0 | 0.0 | 0.00 | 0.42 | 0.00 | 1 | 1014.9 |
| 20260905050318 | 72 | 51 | 0.0 | 0.0 | 0.00 | 0.42 | 0.00 | 1 | 1014.7 |
| 20260905042929 | 72 | 45 | 0.0 | 0.0 | 0.00 | 0.42 | 0.00 | 1 | 1014.7 |
| 20260905041908 | 72 | 45 | 0.0 | 0.0 | 0.00 | 0.42 | 0.00 | 4 | 1014.6 |
| 20260905034632 | 72 | 45 | 0.0 | 0.0 | 0.00 | 0.42 | 0.43 | 6 | 1014.5 |
| 20260905033604 | 72 | 45 | 0.0 | 0.0 | 0.00 | 0.42 | 0.43 | 5 | 1014.5 |
| 20260905032606 | 72 | 101 | 0.0 | 0.0 | 0.00 | 0.42 | 0.43 | 4 | 1014.6 |
| 20260905031600 | 72 | 101 | 0.0 | 0.0 | 0.00 | 0.42 | 0.43 | 4 | 1014.4 |
| 20260905030547 | 72 | 101 | 0.0 | 0.0 | 0.00 | 0.42 | 0.43 | 5 | 1014.6 |
| 20260905025518 | 72 | 101 | 0.0 | 0.0 | 0.00 | 0.42 | 0.43 | 1 | 1014.7 |
| 20260905024520 | 72 | 101 | 0.0 | 0.0 | 0.00 | 0.42 | 0.43 | 5 | 1014.6 |
| 20260905022420 | 72 | 101 | 0.0 | 0.0 | 0.00 | 0.42 | 0.43 | 17 | 1014.7 |
| 20260905021442 | 73 | 101 | 0.0 | 0.0 | 0.00 | 0.42 | 0.43 | 21 | 1014.7 |
| 20260905020432 | 73 | 101 | 0.0 | 0.0 | 0.00 | 0.42 | 0.43 | 24 | 1014.7 |
| 20260905015438 | 73 | 101 | 0.0 | 0.0 | 0.00 | 0.42 | 0.43 | 28 | 1014.6 |
| 20260905014418 | 73 | 101 | 0.0 | 0.0 | 0.00 | 0.44 | 0.43 | 38 | 1014.4 |
| 20260905013359 | 73 | 101 | 0.0 | 0.0 | 0.00 | 0.44 | 0.43 | 40 | 1014.5 |
| 20260905012340 | 74 | 101 | 0.0 | 0.0 | 0.00 | 0.44 | 0.43 | 48 | 1014.4 |
| 20260905011319 | 74 | 101 | 0.0 | 0.0 | 0.00 | 0.45 | 0.43 | 48 | 1014.4 |
| 20260905010255 | 74 | 101 | 0.0 | 0.0 | 0.00 | 0.66 | 0.43 | 51 | 1014.3 |
| 20260905005259 | 75 | 101 | 0.0 | 0.0 | 0.00 | 1.02 | 0.43 | 54 | 1014.2 |
| 20260905004229 | 75 | 101 | 0.0 | 0.0 | 0.00 | 1.16 | 0.43 | 55 | 1014.2 |
| 20260905003237 | 75 | 101 | 0.0 | 0.0 | 0.00 | 1.16 | 0.43 | 56 | 1014.3 |
| 20260905002253 | 75 | 101 | 0.0 | 0.0 | 0.00 | 1.24 | 0.43 | 58 | 1014.0 |
| 20260905001238 | 75 | 101 | 0.0 | 0.0 | 0.00 | 1.35 | 0.43 | 58 | 1014.0 |
| 20260905000248 | 75 | 101 | 0.0 | 0.0 | 0.00 | 1.35 | 0.43 | 59 | 1014.1 |
| 20260904235231 | 75 | 101 | 0.0 | 0.0 | 0.00 | 1.35 | 0.43 | 60 | 1013.9 |
| 20260904233101 | 76 | 101 | 0.0 | 0.0 | 0.00 | 1.35 | 0.43 | 63 | 1013.9 |
| 20260904232116 | 76 | 101 | 0.0 | 0.0 | 0.00 | 1.35 | 0.43 | 64 | 1014.1 |
| 20260904231050 | 76 | 46 | 0.0 | 0.0 | 0.00 | 1.35 | 0.43 | 67 | 1014.1 |
| 20260904230021 | 76 | 46 | 0.0 | 0.0 | 0.00 | 1.35 | 0.43 | 68 | 1014.0 |
| 20260904225012 | 77 | 46 | 0.0 | 4.0 | 0.00 | 1.35 | 0.43 | 69 | 1013.9 |
| 20260904223956 | 77 | 51 | 0.0 | 4.0 | 0.00 | 1.36 | 0.43 | 68 | 1013.8 |
| 20260904223006 | 77 | 49 | 0.0 | 2.0 | 0.00 | 1.36 | 0.43 | 69 | 1013.9 |
| 20260904220849 | 78 | 56 | 0.0 | 4.0 | 0.00 | 1.36 | 0.43 | 69 | 1013.9 |
| 20260904215856 | 78 | 53 | 0.0 | 3.0 | 0.00 | 1.36 | 0.43 | 70 | 1014.0 |
| 20260904211433 | 81 | 56 | 0.0 | 1.0 | 0.00 | 1.36 | 0.43 | 73 | 1014.2 |
| 20260904205216 | 80 | 116 | 0.0 | 0.0 | 0.00 | 1.36 | 0.43 | 75 | 1014.4 |
| 20260904204151 | 80 | 115 | 0.0 | 1.0 | 0.00 | 1.36 | 0.43 | 75 | 1014.4 |
| 20260904203138 | 81 | 115 | 0.0 | 0.0 | 0.00 | 1.36 | 0.43 | 75 | 1014.2 |
| 20260904201022 | 80 | 103 | 0.0 | 5.0 | 0.00 | 1.36 | 0.43 | 75 | 1014.1 |
| 20260904194832 | 79 | 121 | 0.0 | 2.0 | 0.00 | 1.36 | 0.43 | 72 | 1014.8 |
| 20260904193804 | 78 | 108 | 0.0 | 1.0 | 0.00 | 1.36 | 0.43 | 72 | 1015.0 |
| 20260904192810 | 78 | 116 | 0.0 | 0.0 | 0.00 | 1.36 | 0.43 | 71 | 1015.1 |
| 20260904191831 | 78 | 117 | 0.0 | 2.0 | 0.00 | 1.36 | 0.43 | 70 | 1015.4 |
| 20260904190817 | 78 | 126 | 0.0 | 0.0 | 0.00 | 1.36 | 0.43 | 70 | 1016.0 |
| 20260904185820 | 78 | 141 | 0.0 | 0.0 | 0.00 | 1.36 | 0.43 | 72 | 1016.1 |
| 20260904184819 | 79 | 141 | 0.0 | 0.0 | 0.00 | 1.36 | 0.43 | 73 | 1015.9 |
| 20260904183842 | 79 | 141 | 0.0 | 2.0 | 0.00 | 1.36 | 0.43 | 74 | 1015.7 |
| 20260904182832 | 79 | 223 | 0.0 | 0.0 | 0.00 | 1.36 | 0.43 | 73 | 1015.5 |
| 20260904181839 | 78 | 128 | 0.0 | 0.0 | 0.00 | 1.36 | 0.43 | 71 | 1015.8 |
| 20260904180854 | 79 | 139 | 0.0 | 0.0 | 0.00 | 1.36 | 0.43 | 70 | 1015.9 |
| 20260904175829 | 78 | 139 | 0.0 | 1.0 | 0.00 | 1.36 | 0.43 | 68 | 1015.6 |
| 20260904174830 | 77 | 165 | 0.0 | 0.0 | 0.00 | 1.36 | 0.43 | 60 | 1015.4 |
| 20260904173827 | 76 | 127 | 0.0 | 2.0 | 0.00 | 1.36 | 0.43 | 54 | 1015.4 |
| 20260904171723 | 75 | 120 | 0.0 | 1.0 | 0.00 | 1.36 | 0.43 | 41 | 1016.2 |
| 20260904170708 | 74 | 120 | 0.0 | 0.0 | 0.00 | 1.36 | 0.43 | 32 | 1016.3 |
| 20260904163355 | 74 | 100 | 0.0 | 0.0 | 0.00 | 1.36 | 0.43 | 49 | 1016.4 |
| 20260904162354 | 75 | 100 | 0.0 | 0.0 | 0.05 | 1.36 | 0.43 | 58 | 1016.5 |
| 20260904161412 | 77 | 99 | 0.0 | 5.0 | 0.13 | 1.36 | 0.43 | 69 | 1017.3 |
| 20260904160426 | 78 | 108 | 0.0 | 1.0 | 0.00 | 1.34 | 0.40 | 73 | 1016.7 |
| 20260904155411 | 79 | 105 | 0.0 | 2.0 | 0.00 | 1.34 | 0.40 | 75 | 1016.7 |
| 20260904154432 | 79 | 110 | 0.0 | 1.0 | 0.00 | 1.34 | 0.40 | 74 | 1016.3 |
| 20260904153441 | 79 | 106 | 0.0 | 1.0 | 0.00 | 1.34 | 0.40 | 75 | 1016.3 |
| 20260904152502 | 79 | 107 | 0.0 | 0.0 | 0.00 | 1.34 | 0.40 | 75 | 1016.4 |
| 20260904151527 | 79 | 44 | 0.0 | 3.0 | 0.00 | 1.34 | 0.40 | 75 | 1016.3 |
| 20260904150502 | 78 | 35 | 0.0 | 2.0 | 0.00 | 1.34 | 0.40 | 73 | 1016.2 |
| 20260904145503 | 77 | 67 | 0.0 | 0.0 | 0.00 | 1.34 | 0.40 | 73 | 1016.2 |
| 20260904144445 | 77 | 54 | 0.0 | 1.0 | 0.00 | 1.34 | 0.40 | 73 | 1016.1 |
| 20260904143443 | 77 | 56 | 0.0 | 0.0 | 0.00 | 1.34 | 0.40 | 74 | 1016.2 |
| 20260904142451 | 78 | 56 | 0.0 | 0.0 | 0.00 | 1.34 | 0.40 | 75 | 1016.3 |
| 20260904141429 | 79 | 314 | 0.0 | 0.0 | 0.00 | 1.34 | 0.40 | 75 | 1016.3 |
| 20260904140402 | 79 | 34 | 0.0 | 1.0 | 0.00 | 1.34 | 0.40 | 75 | 1016.3 |
| 20260904135401 | 78 | 101 | 0.0 | 0.0 | 0.00 | 1.34 | 0.40 | 74 | 1016.3 |
| 20260904134332 | 77 | 101 | 0.0 | 0.0 | 0.00 | 1.34 | 0.40 | 73 | 1016.2 |
| 20260904133351 | 76 | 101 | 0.0 | 0.0 | 0.00 | 1.34 | 0.40 | 67 | 1016.1 |
| 20260904132401 | 75 | 101 | 0.0 | 0.0 | 0.00 | 1.34 | 0.40 | 65 | 1016.1 |
| 20260904131411 | 73 | 101 | 0.0 | 0.0 | 0.00 | 1.34 | 0.40 | 36 | 1016.5 |
| 20260904125217 | 71 | 101 | 0.0 | 0.0 | 0.00 | 1.34 | 0.40 | 1 | 1016.7 |
| 20260904123031 | 69 | 101 | 0.0 | 0.0 | 0.00 | 1.35 | 0.40 | 1 | 1016.9 |
| 20260904122018 | 69 | 101 | 0.0 | 0.0 | 0.00 | 1.35 | 0.40 | 1 | 1017.0 |
| 20260904120944 | 69 | 101 | 0.0 | 0.0 | 0.00 | 1.35 | 0.40 | 1 | 1016.6 |
| 20260904115913 | 68 | 101 | 0.0 | 0.0 | 0.00 | 1.35 | 0.40 | 1 | 1016.6 |
| 20260904114051 | 68 | 101 | 0.0 | 0.0 | 0.00 | 1.35 | 0.40 | 1 | 1016.3 |